Regional Weather Roundup
Issued by NWS Kansas City/Pleasant Hill, MO

Home | Current Version | Previous Version | Text Only | Print | Product List | Glossary On
Versions: 1 2 3 4 5 6 7 8 9 10 11 12 13 14 15 16 17 18 19 20 21 22 23 24 25 26 27 28 29 30 31 32 33 34 35 36 37 38 39 40 41 42 43 44 45 46 47 48 49 50
000
ASUS43 KEAX 261311
RWREAX

WEATHER ROUNDUP FOR EASTERN KANSAS AND NORTHWEST MISSOURI
NATIONAL WEATHER SERVICE KANSAS CITY/PLEASANT HILL MO
800 AM CDT SUN APR 26 2015

KSZ040-057-103>105-MOZ028-029-037-043-261400-
...KANSAS CITY METROPOLITAN AREA...

CITY           SKY/WX    TMP DP  RH WIND       PRES   REMARKS
K.C. INTL      CLOUDY    47  43  86 E15       29.94R
K.C. DOWNTOWN  CLOUDY    49  43  80 E13G20    29.94R
LEES SUMMIT    CLOUDY    47  43  86 NE16G22   29.94R
OLATHE - IXD   CLOUDY    48  44  86 NE14      29.93R
OLATHE - OJC   CLOUDY    48  45  89 NE13      29.92R FOG
LAWRENCE       CLOUDY    49  44  83 NE8       29.93R

$$

MOZ001>008-011>017-020>025-030>033-038>040-044>046-053-054-261400-
...NORTHERN AND CENTRAL MISSOURI...

CITY           SKY/WX    TMP DP  RH WIND       PRES   REMARKS
ST. JOSEPH     CLOUDY    48  42  80 E8        29.97R
MOSBY          CLOUDY    48  41  76 NE12      29.96R
WARRENSBURG    CLOUDY    46  43  87 NE9       29.94R
WHITEMAN AFB   CLOUDY    46  45  93 E7G17     29.92R FOG
CLINTON        CLOUDY    48  46  93 NE9       29.92R
SEDALIA        CLOUDY    48  44  86 NE8       29.94R
WARSAW         NOT AVBL
MARSHALL       CLOUDY    50  46  87 NE10      29.97R FOG
CHILLICOTHE      N/A     48  41  76 NE8       29.99R
KIRKSVILLE     SUNNY     44  38  79 NE10      29.98R

$$

MOZ041-047>049-056>058-063>065-088>090-097-261400-
...EASTERN AND SOUTHERN MISSOURI...

CITY           SKY/WX    TMP DP  RH WIND       PRES   REMARKS
ST. LOUIS INTL CLOUDY    49  40  71 NE8       29.91R
SPIRIT OF STL  CLOUDY    48  41  76 NE12      29.90R
COLUMBIA       CLOUDY    47  44  90 NE10      29.93R FOG
JEFFERSON CITY CLOUDY    48  43  82 NE6       29.93R
MEXICO         CLOUDY   N/A N/A N/A NE12      29.93R HAZE
HANNIBAL       SUNNY     48  36  61 CALM      29.97R
ROLLA          CLOUDY    45  44  97 NE9       29.88R FOG
LEBANON        CLOUDY    46  45  93 NE5       29.90R FOG
OSAGE BEACH    CLOUDY    46  43  87 NE9       29.90R
SPRINGFIELD    CLOUDY    51  48  89 NE13      29.85R
BRANSON        CLOUDY    54  50  87 N5        29.85R
NEVADA         CLOUDY    48  46  93 NE14      29.91R
JOPLIN         CLOUDY    52  50  93 NE10      29.85R
WEST PLAINS    CLOUDY    51  46  83 N9        29.86R

$$

IAZ060-094-KSZ022-034>040-054-083-096-NEZ052-066-093-261400-
...KANSAS...SOUTHEAST NEBRASKA AND IOWA...

CITY           SKY/WX    TMP DP  RH WIND       PRES   REMARKS
TOPEKA         CLOUDY    50  45  83 NE13      29.94R
MANHATTAN      CLOUDY    48  47  96 NE12      29.92R FOG
EMPORIA        CLOUDY    49  47  93 E13       29.89R FOG
CHANUTE        CLOUDY    51  49  92 NE10      29.86R FOG
WICHITA        CLOUDY    51  46  83 NE16      29.85R
OMAHA          MOSUNNY   44  41  89 NW5       30.01R
LINCOLN        SUNNY     45  38  76 E13       29.99R
FALLS CITY     CLOUDY    47  41  80 E14       29.96R
LAMONI         PTSUNNY   44  37  76 NE6       30.00R
DES MOINES     MOSUNNY   46  36  68 NE10      30.03R

$$



USA.gov is the U.S. government's official web portal to all federal, state and local government web resources and services.